Regional Weather Roundup
Issued by NWS

Home | Current Version | Previous Version | Text Only | Print | Product List | Glossary On
Versions: 1 2 3 4 5 6 7 8 9 10 11 12 13 14 15 16 17 18 19 20 21 22 23 24 25 26 27 28
000
ASUS44 KLIX 051311
RWRLA
LOUISIANA WEATHER ROUNDUP
NATIONAL WEATHER SERVICE NEW ORLEANS LA
800 AM CDT THU MAY 05 2016

NOTE: "FAIR" INDICATES FEW OR NO CLOUDS BELOW 12,000 FEET WITH NO
      SIGNIFICANT WEATHER AND/OR OBSTRUCTIONS TO VISIBILITY.
      SKY/WX - SKY CONDITION AND SIGNIFICANT WEATHER.
      TMP - AIR TEMPERATURE.    DP   - DEWPOINT TEMPERATURE.
      RH  - RELATIVE HUMIDITY.  PRES - PRESSURE.
      HX  - HEAT INDEX.         WCI  - WIND CHILL INDEX.

*  THESE STATIONS ARE NOT NWS OR FAA STATIONS AND ARE NOT UNDER
   NWS QUALITY CONTROL.

LAZ040-048-061>063-065-066-069-051400-
SOUTHEAST LOUISIANA

CITY           SKY/WX    TMP DP  RH WIND       PRES   REMARKS
N.O. AUDUBON     N/A     72  61  68 MISG        N/A
N.O. INTL ARPT SUNNY     70  58  65 N9        29.93R
N.O. LAKEFRONT SUNNY     68  59  73 N13       29.94R
N.O. DOWNTOWN* FAIR      70  58  65 VRB7      29.94R
RESERVE*       FAIR      68  57  69 N6        29.94R
SLIDELL        SUNNY     64  55  72 N8        29.92R
BATON ROUGE    SUNNY     64  53  67 NW5       29.96R
BOOTHVILLE     SUNNY     70  60  70 NW8G17    29.92R
BELLE CHASSE   MOSUNNY   68  60  75 VRB3      29.92R
BOGALUSA*      FAIR      63  54  71 N8        29.95R
GALLIANO*      SUNNY     69  60  72 NW9       29.93R
NEW ROADS*     FAIR      64  55  74 N9        29.97R
GONZALES*      FAIR      65  57  75 NW6       29.95R
HAMMOND*       SUNNY     63  54  72 N9        29.94R
HOUMA*         NOT AVBL
PORT FOURCHON* SUNNY     73  61  64 NW14      29.94R

$$

LAZ041-044-053-054-051400-
SOUTHWEST LOUISIANA

CITY           SKY/WX    TMP DP  RH WIND       PRES   REMARKS
LAKE CHARLES   SUNNY     66  54  65 N8        29.99R
LAFAYETTE      SUNNY     67  54  63 N8        29.97R
PATTERSON      NOT AVBL
SALT POINT       N/A     68  58  70 VRB5      29.94R
NEW IBERIA     SUNNY     66  56  70 N8        29.97R
CHENAULT AIRPK SUNNY     64  54  68 N7        29.99R

$$

LAZ027-028-051400-
CENTRAL LOUISIANA

CITY           SKY/WX    TMP DP  RH WIND       PRES   REMARKS
FORT POLK      SUNNY     62  51  66 VRB7      30.00R
ALEXANDRIA INT SUNNY     60  52  74 N6        29.99R
ALEXANDRIA     SUNNY     65  50  58 VRB5      30.00R

$$

LAZ001-002-051400-
NORTHWEST LOUISIANA

CITY           SKY/WX    TMP DP  RH WIND       PRES   REMARKS
SHREVEPORT     SUNNY     61  50  67 NW6       30.03R
BARKSDALE AFB  SUNNY     60  52  76 N5        30.03R
DTN SHREVEPORT SUNNY     61  53  75 NW3       30.03R

$$

LAZ014-016-051400-
NORTHEAST LOUISIANA

CITY           SKY/WX    TMP DP  RH WIND       PRES   REMARKS
MONROE         SUNNY     62  51  67 N3        30.01R
TALLULAH       SUNNY     64  49  57 N10       29.99R

$$





USA.gov is the U.S. government's official web portal to all federal, state and local government web resources and services.